Rbgn^[z[y[W
メイン
   新天体発見情報
     Comet P/2019 GG21 (PANSTARRS)
投稿するにはまず登録を

フラット表示 前のトピック | 次のトピック
投稿者 スレッド
佐藤裕久
投稿日時: 2019-4-26 21:32
モデレータ
登録日: 2005-6-12
居住地: 日本
投稿: 2020
オンライン
Comet P/2019 GG21 (PANSTARRS)

R. WerykとR. Wainscoat (ハワイ大学天文学研究所)の通報によると、4月4.4日UT、Haleakalaに
ある1.8-m Pan-STARRS1望遠鏡で得た4枚のw-バンドCCD画像から彗星を発見した。
この天体の頭部のFWHM (半値全幅)は近傍の恒星の1".4より大きく約1".9であった。スタック
イメージで、この天体は北西に少し非対称のようである。
小惑星センターは、この天体に2019 GG21という仮符号をつけた。しかし、小惑星センターのPCCP
webpage公表後までではなかった。佐藤英貴氏(東京都文京区, iTelescope 天文台, 0.43-m f/6.8 
アストログラフ, Siding Spring, ニューサウスウェールズ州, オーストラリア, 遠隔操作:4月5.5
日UT、60秒露出16枚のスタックで、強く集光した5"のコマが見え、p.a. 280°に向かって4"の尾が
ある。2".8の円形範囲で測定した全光度は20.8等であった)らCCD位置観測者によって彗星状と観測さ
れた。3月29.3日UT、B. M. AfricanoによるMt Lemmonの発見前の観測があった。光度は19.9-20.1等
であった。

発見位置は次のとおり、

     2019 UT             R.A. (2000) Decl.       Mag.
     Apr.  4.39692   11 54 07.91   - 2 47 07.4   21.0
           4.40816   11 54 07.55   - 2 47 06.1   21.0
           4.41937   11 54 07.22   - 2 47 04.7   21.0
           4.43059   11 54 06.90   - 2 47 03.3   21.2

楕円軌道要素と位置推算表は次のとおり、

Orbital elements:
    P/2019 GG21 (PANSTARRS)
Epoch 2019 July 16.0 TT = JDT 2458680.5
T 2019 July 3.61207 TT                                  MPCW
q   3.8111998            (2000.0)            P               Q
n   0.04461907     Peri.  218.46813     -0.94908640     +0.31305678
a   7.8726763      Node   339.69149     -0.25819763     -0.83685801
e   0.5158953      Incl.    5.80062     -0.18046880     -0.44907029
P  22.09
From 50 observations 2019 Mar. 29-Apr. 14, mean residual 0".4.

    P/2019 GG21 (PANSTARRS)
Epoch 2041 Nov. 17.0 TT = JDT 2466840.5
T 2041 Nov. 10.46625 TT                                 MPCW
q   3.8873187            (2000.0)            P               Q
n   0.04314574     Peri.  219.02672     -0.94753703     +0.31773464
a   8.0508936      Node   339.41774     -0.26273732     -0.83637450
e   0.5171569      Incl.    5.69798     -0.18205128     -0.44667929
P  22.84
From 50 observations 2019 Mar. 29-Apr. 14, mean residual 0".4.

    P/2019 GG21 (PANSTARRS)
Epoch 2019 Apr. 27.0 TT = JDT 2458600.5
T 2019 July 3.55659 TT                                  MPCW
q   3.8112153            (2000.0)            P               Q
n   0.04462197     Peri.  218.45860     -0.94913595     +0.31290657
a   7.8723348      Node   339.69195     -0.25806511     -0.83689819
e   0.5158723      Incl.    5.80069     -0.18039776     -0.44910009
P  22.09
From 50 observations 2019 Mar. 29-Apr. 14, mean residual 0".4.

Ephemeris:
    P/2019 GG21 (PANSTARRS)
Date    TT    R. A. (2000) Decl.     Delta      r     Elong.  Phase   m1
2019 03 24    11 59 51.2 -03 10 37   2.8693  3.8648   176.7     0.9  21.2
...
2019 04 08    11 52 27.9 -02 39 59   2.8880  3.8503   161.4     4.7  21.2
...
2019 04 16    11 49 10.5 -02 25 47   2.9234  3.8434   152.8     6.8  21.2
...
2019 04 22    11 47 10.3 -02 17 13   2.9605  3.8387   146.5     8.3  21.2
2019 04 23    11 46 52.8 -02 16 00   2.9675  3.8380   145.4     8.5  21.2
2019 04 24    11 46 36.2 -02 14 51   2.9747  3.8372   144.4     8.8  21.2
...
2019 04 30    11 45 14.0 -02 09 23   3.0226  3.8330   138.2    10.1  21.2
...
2019 05 08    11 44 13.8 -02 06 24   3.0976  3.8280   130.3    11.6  21.3
...
2019 05 23    11 45 02.0 -02 15 37   3.2656  3.8203   116.1    13.8  21.4

(CBET 4621、MPEC 2019-H44)

フラット表示 前のトピック | 次のトピック

題名 投稿者 日時
 » Comet P/2019 GG21 (PANSTARRS) 佐藤裕久 2019-4-26 21:32

投稿するにはまず登録を
 
© 1999 Tsutomu Seki.